Time,TemperatureF,DewpointF,PressureIn,WindDirection,WindDirectionDegrees,WindSpeedMPH,WindSpeedGustMPH,Humidity,HourlyPrecipIn,Conditions,Clouds,dailyrainin,SoftwareType,DateUTC
2013-02-20 00:12:00,27.1,16.0,30.29,WNW,292,3.0,8.0,63,0.00,,,0.00,weatherlink.com 1.10,2013-02-20 06:12:00,
2013-02-20 00:27:00,27.0,15.0,30.30,WNW,288,7.0,7.0,62,0.00,,,0.00,weatherlink.com 1.10,2013-02-20 06:27:00,
2013-02-20 00:42:00,26.8,15.0,30.29,NW,305,2.0,7.0,62,0.00,,,0.00,weatherlink.com 1.10,2013-02-20 06:42:00,
2013-02-20 00:57:00,26.6,15.0,30.30,WNW,293,2.0,7.0,61,0.00,,,0.00,weatherlink.com 1.10,2013-02-20 06:57:00,
2013-02-20 01:12:00,26.4,14.0,30.31,West,276,3.0,8.0,60,0.00,,,0.00,weatherlink.com 1.10,2013-02-20 07:12:00,
2013-02-20 01:27:00,26.3,14.0,30.30,WNW,297,2.0,9.0,59,0.00,,,0.00,weatherlink.com 1.10,2013-02-20 07:27:00,
2013-02-20 01:42:00,26.2,14.0,30.30,WNW,300,3.0,8.0,59,0.00,,,0.00,weatherlink.com 1.10,2013-02-20 07:42:00,
2013-02-20 01:57:00,26.0,13.0,30.29,NW,324,1.0,7.0,59,0.00,,,0.00,weatherlink.com 1.10,2013-02-20 07:57:00,
2013-02-20 02:12:00,25.7,13.0,30.29,NW,324,2.0,4.0,59,0.00,,,0.00,weatherlink.com 1.10,2013-02-20 08:12:00,
2013-02-20 02:27:00,25.5,13.0,30.29,NW,315,3.0,4.0,60,0.00,,,0.00,weatherlink.com 1.10,2013-02-20 08:27:00,
2013-02-20 02:42:00,25.4,14.0,30.28,NW,321,2.0,6.0,61,0.00,,,0.00,weatherlink.com 1.10,2013-02-20 08:42:00,
2013-02-20 02:57:00,25.2,14.0,30.29,NW,305,1.0,4.0,62,0.00,,,0.00,weatherlink.com 1.10,2013-02-20 08:57:00,
2013-02-20 03:12:00,25.1,14.0,30.29,NW,313,2.0,5.0,62,0.00,,,0.00,weatherlink.com 1.10,2013-02-20 09:12:00,
2013-02-20 03:27:00,24.9,14.0,30.28,NW,321,0.0,4.0,63,0.00,,,0.00,weatherlink.com 1.10,2013-02-20 09:27:00,
2013-02-20 03:42:00,24.8,14.0,30.29,NW,320,1.0,4.0,64,0.00,,,0.00,weatherlink.com 1.10,2013-02-20 09:42:00,
2013-02-20 03:58:00,24.6,14.0,30.29,NW,320,1.0,6.0,64,0.00,,,0.00,weatherlink.com 1.10,2013-02-20 09:58:00,
2013-02-20 04:12:00,24.7,14.0,30.30,NNW,336,3.0,8.0,64,0.00,,,0.00,weatherlink.com 1.10,2013-02-20 10:12:00,
2013-02-20 04:27:00,24.7,14.0,30.31,NW,324,4.0,7.0,63,0.00,,,0.00,weatherlink.com 1.10,2013-02-20 10:27:00,
2013-02-20 04:42:00,24.6,14.0,30.31,NW,306,1.0,5.0,64,0.00,,,0.00,weatherlink.com 1.10,2013-02-20 10:42:00,
2013-02-20 04:57:00,24.4,14.0,30.31,NW,320,3.0,6.0,65,0.00,,,0.00,weatherlink.com 1.10,2013-02-20 10:57:00,
2013-02-20 05:13:00,24.1,14.0,30.31,NNW,333,3.0,4.0,66,0.00,,,0.00,weatherlink.com 1.10,2013-02-20 11:13:00,
2013-02-20 05:28:00,23.9,14.0,30.32,NNW,333,3.0,4.0,67,0.00,,,0.00,weatherlink.com 1.10,2013-02-20 11:28:00,
2013-02-20 05:43:00,23.7,14.0,30.32,NW,325,4.0,7.0,67,0.00,,,0.00,weatherlink.com 1.10,2013-02-20 11:43:00,
2013-02-20 05:57:00,23.5,13.0,30.32,NNW,339,5.0,8.0,65,0.00,,,0.00,weatherlink.com 1.10,2013-02-20 11:57:00,
2013-02-20 06:12:00,23.4,14.0,30.32,NW,308,2.0,7.0,67,0.00,,,0.00,weatherlink.com 1.10,2013-02-20 12:12:00,
2013-02-20 06:28:00,23.2,13.0,30.33,NNW,336,4.0,7.0,66,0.00,,,0.00,weatherlink.com 1.10,2013-02-20 12:28:00,
2013-02-20 06:43:00,22.9,13.0,30.33,NNW,330,3.0,7.0,65,0.00,,,0.00,weatherlink.com 1.10,2013-02-20 12:43:00,
2013-02-20 06:58:00,22.7,13.0,30.32,NNW,348,3.0,7.0,65,0.00,,,0.00,weatherlink.com 1.10,2013-02-20 12:58:00,
2013-02-20 07:13:00,22.7,13.0,30.34,West,281,2.0,5.0,65,0.00,,,0.00,weatherlink.com 1.10,2013-02-20 13:13:00,
2013-02-20 07:28:00,23.0,13.0,30.35,NNW,338,3.0,6.0,66,0.00,,,0.00,weatherlink.com 1.10,2013-02-20 13:28:00,
2013-02-20 07:43:00,23.1,13.0,30.35,NNW,343,3.0,7.0,66,0.00,,,0.00,weatherlink.com 1.10,2013-02-20 13:43:00,
2013-02-20 07:58:00,23.3,13.0,30.35,NNW,333,5.0,8.0,65,0.00,,,0.00,weatherlink.com 1.10,2013-02-20 13:58:00,
2013-02-20 08:13:00,23.3,13.0,30.35,NNW,345,6.0,9.0,64,0.00,,,0.00,weatherlink.com 1.10,2013-02-20 14:13:00,
2013-02-20 08:28:00,23.4,13.0,30.36,NNW,327,6.0,9.0,65,0.00,,,0.00,weatherlink.com 1.10,2013-02-20 14:28:00,
2013-02-20 08:43:00,23.8,13.0,30.36,NNW,342,4.0,9.0,64,0.00,,,0.00,weatherlink.com 1.10,2013-02-20 14:43:00,
2013-02-20 08:58:00,24.0,14.0,30.37,NW,325,5.0,8.0,65,0.00,,,0.00,weatherlink.com 1.10,2013-02-20 14:58:00,
2013-02-20 09:13:00,24.9,14.0,30.38,WNW,296,4.0,9.0,63,0.00,,,0.00,weatherlink.com 1.10,2013-02-20 15:13:00,
2013-02-20 09:28:00,25.0,14.0,30.38,North,11,3.0,10.0,63,0.00,,,0.00,weatherlink.com 1.10,2013-02-20 15:28:00,
2013-02-20 09:43:00,25.3,14.0,30.38,WNW,296,7.0,8.0,63,0.00,,,0.00,weatherlink.com 1.10,2013-02-20 15:43:00,
2013-02-20 09:58:00,24.9,15.0,30.37,NNW,338,8.0,9.0,65,0.00,,,0.00,weatherlink.com 1.10,2013-02-20 15:58:00,
2013-02-20 10:13:00,25.2,15.0,30.37,NW,315,6.0,9.0,64,0.00,,,0.00,weatherlink.com 1.10,2013-02-20 16:13:00,
2013-02-20 10:28:00,25.3,15.0,30.38,West,265,4.0,11.0,64,0.00,,,0.00,weatherlink.com 1.10,2013-02-20 16:28:00,
2013-02-20 10:43:00,26.0,16.0,30.38,WNW,303,7.0,9.0,65,0.00,,,0.00,weatherlink.com 1.10,2013-02-20 16:43:00,
2013-02-20 10:58:00,26.3,16.0,30.38,WNW,303,5.0,8.0,64,0.00,,,0.00,weatherlink.com 1.10,2013-02-20 16:58:00,
2013-02-20 11:13:00,26.2,16.0,30.37,NNW,335,6.0,10.0,65,0.00,,,0.00,weatherlink.com 1.10,2013-02-20 17:13:00,
2013-02-20 11:28:00,26.0,15.0,30.36,NW,320,7.0,9.0,64,0.00,,,0.00,weatherlink.com 1.10,2013-02-20 17:28:00,
2013-02-20 11:43:00,26.2,15.0,30.36,NNW,328,6.0,9.0,63,0.00,,,0.00,weatherlink.com 1.10,2013-02-20 17:43:00,
2013-02-20 11:58:00,26.8,16.0,30.36,NW,311,7.0,11.0,63,0.00,,,0.00,weatherlink.com 1.10,2013-02-20 17:58:00,
2013-02-20 12:13:00,26.9,16.0,30.37,NW,316,5.0,10.0,63,0.00,,,0.00,weatherlink.com 1.10,2013-02-20 18:13:00,
2013-02-20 12:28:00,27.1,16.0,30.37,WNW,297,2.0,11.0,63,0.00,,,0.00,weatherlink.com 1.10,2013-02-20 18:28:00,
2013-02-20 12:43:00,27.2,16.0,30.36,NNW,343,4.0,12.0,63,0.00,,,0.00,weatherlink.com 1.10,2013-02-20 18:43:00,
2013-02-20 12:58:00,27.1,16.0,30.36,NW,314,3.0,8.0,63,0.00,,,0.00,weatherlink.com 1.10,2013-02-20 18:58:00,
2013-02-20 13:13:00,27.4,15.0,30.35,NNW,335,7.0,9.0,60,0.00,,,0.00,weatherlink.com 1.10,2013-02-20 19:13:00,
2013-02-20 13:28:00,27.2,15.0,30.34,WNW,297,6.0,9.0,61,0.00,,,0.00,weatherlink.com 1.10,2013-02-20 19:28:00,
2013-02-20 13:43:00,27.9,16.0,30.34,NNE,18,5.0,9.0,60,0.00,,,0.00,weatherlink.com 1.10,2013-02-20 19:43:00,
2013-02-20 13:58:00,28.0,16.0,30.33,NNW,343,4.0,8.0,61,0.00,,,0.00,weatherlink.com 1.10,2013-02-20 19:58:00,
2013-02-20 14:13:00,28.1,16.0,30.32,NW,318,5.0,8.0,62,0.00,,,0.00,weatherlink.com 1.10,2013-02-20 20:13:00,
2013-02-20 14:28:00,28.3,17.0,30.30,NNE,22,7.0,10.0,62,0.00,,,0.00,weatherlink.com 1.10,2013-02-20 20:28:00,
2013-02-20 14:43:00,28.0,17.0,30.29,NNE,22,5.0,11.0,63,0.00,,,0.00,weatherlink.com 1.10,2013-02-20 20:43:00,
2013-02-20 14:58:00,27.8,17.0,30.30,North,4,6.0,10.0,63,0.00,,,0.00,weatherlink.com 1.10,2013-02-20 20:58:00,
2013-02-20 15:13:00,27.8,16.0,30.32,NNE,27,4.0,9.0,62,0.00,,,0.00,weatherlink.com 1.10,2013-02-20 21:13:00,
2013-02-20 15:28:00,27.7,16.0,30.30,NNE,33,6.0,8.0,63,0.00,,,0.00,weatherlink.com 1.10,2013-02-20 21:28:00,
2013-02-20 15:43:00,27.7,17.0,30.29,NNW,342,4.0,9.0,65,0.00,,,0.00,weatherlink.com 1.10,2013-02-20 21:43:00,
2013-02-20 15:58:00,27.8,18.0,30.29,NNE,26,3.0,9.0,66,0.00,,,0.00,weatherlink.com 1.10,2013-02-20 21:58:00,
2013-02-20 16:13:00,27.9,17.0,30.28,NNE,14,6.0,9.0,64,0.00,,,0.00,weatherlink.com 1.10,2013-02-20 22:13:00,
2013-02-20 16:29:00,28.8,17.0,30.27,NNE,14,4.0,10.0,62,0.00,,,0.00,weatherlink.com 1.10,2013-02-20 22:29:00,
2013-02-20 16:43:00,28.7,17.0,30.28,NNE,22,3.0,11.0,62,0.00,,,0.00,weatherlink.com 1.10,2013-02-20 22:43:00,
2013-02-20 16:58:00,28.4,17.0,30.28,NNE,23,4.0,10.0,62,0.00,,,0.00,weatherlink.com 1.10,2013-02-20 22:58:00,
2013-02-20 17:13:00,28.0,18.0,30.29,NNE,29,3.0,8.0,65,0.00,,,0.00,weatherlink.com 1.10,2013-02-20 23:13:00,
2013-02-20 17:28:00,27.9,18.0,30.29,North,354,3.0,7.0,66,0.00,,,0.00,weatherlink.com 1.10,2013-02-20 23:28:00,
2013-02-20 17:43:00,27.7,18.0,30.29,NNE,23,4.0,7.0,68,0.00,,,0.00,weatherlink.com 1.10,2013-02-20 23:43:00,
2013-02-20 17:58:00,27.5,17.0,30.29,NE,43,3.0,8.0,66,0.00,,,0.00,weatherlink.com 1.10,2013-02-20 23:58:00,
2013-02-20 18:13:00,27.2,18.0,30.29,North,4,2.0,5.0,68,0.00,,,0.00,weatherlink.com 1.10,2013-02-21 00:13:00,
2013-02-20 18:28:00,27.0,18.0,30.29,NNE,27,1.0,5.0,69,0.00,,,0.00,weatherlink.com 1.10,2013-02-21 00:28:00,
2013-02-20 18:43:00,26.7,18.0,30.29,North,4,1.0,3.0,70,0.00,,,0.00,weatherlink.com 1.10,2013-02-21 00:43:00,
2013-02-20 18:59:00,26.6,18.0,30.30,North,4,0.0,2.0,71,0.00,,,0.00,weatherlink.com 1.10,2013-02-21 00:59:00,
2013-02-20 19:13:00,26.5,18.0,30.30,North,4,0.0,2.0,71,0.00,,,0.00,weatherlink.com 1.10,2013-02-21 01:13:00,
2013-02-20 19:29:00,26.6,19.0,30.29,North,4,1.0,3.0,72,0.00,,,0.00,weatherlink.com 1.10,2013-02-21 01:29:00,
2013-02-20 19:43:00,26.0,19.0,30.29,North,4,0.0,3.0,74,0.00,,,0.00,weatherlink.com 1.10,2013-02-21 01:43:00,
2013-02-20 19:58:00,25.7,19.0,30.29,North,4,0.0,3.0,75,0.00,,,0.00,weatherlink.com 1.10,2013-02-21 01:58:00,
2013-02-20 20:13:00,25.8,19.0,30.29,NNE,12,3.0,4.0,75,0.00,,,0.00,weatherlink.com 1.10,2013-02-21 02:13:00,
2013-02-20 20:28:00,25.8,19.0,30.30,ENE,69,1.0,4.0,74,0.00,,,0.00,weatherlink.com 1.10,2013-02-21 02:28:00,
2013-02-20 20:58:00,25.7,18.0,30.31,NNE,29,2.0,4.0,74,0.00,,,0.00,weatherlink.com 1.10,2013-02-21 02:58:00,
2013-02-20 21:14:00,25.5,18.0,30.31,NNE,32,1.0,5.0,74,0.00,,,0.00,weatherlink.com 1.10,2013-02-21 03:14:00,
2013-02-20 21:29:00,25.3,18.0,30.30,NNE,32,1.0,5.0,75,0.00,,,0.00,weatherlink.com 1.10,2013-02-21 03:29:00,
2013-02-20 21:44:00,25.2,18.0,30.30,NE,54,0.0,4.0,75,0.00,,,0.00,weatherlink.com 1.10,2013-02-21 03:44:00,
2013-02-20 21:59:00,25.0,18.0,30.31,NE,54,2.0,3.0,76,0.00,,,0.00,weatherlink.com 1.10,2013-02-21 03:59:00,
2013-02-20 22:14:00,24.6,19.0,30.31,NE,43,1.0,3.0,78,0.00,,,0.00,weatherlink.com 1.10,2013-02-21 04:14:00,
2013-02-20 22:29:00,24.4,18.0,30.30,NNE,29,2.0,5.0,78,0.00,,,0.00,weatherlink.com 1.10,2013-02-21 04:29:00,
2013-02-20 22:44:00,24.3,18.0,30.30,NNE,29,2.0,6.0,77,0.00,,,0.00,weatherlink.com 1.10,2013-02-21 04:44:00,
2013-02-20 22:59:00,24.2,18.0,30.30,NE,52,2.0,5.0,78,0.00,,,0.00,weatherlink.com 1.10,2013-02-21 04:59:00,
2013-02-20 23:14:00,24.3,18.0,30.30,NE,41,3.0,5.0,78,0.00,,,0.00,weatherlink.com 1.10,2013-02-21 05:14:00,
2013-02-20 23:29:00,24.2,18.0,30.30,NNE,21,2.0,5.0,78,0.00,,,0.00,weatherlink.com 1.10,2013-02-21 05:29:00,
2013-02-20 23:44:00,24.1,19.0,30.29,NNE,27,3.0,7.0,79,0.00,,,0.00,weatherlink.com 1.10,2013-02-21 05:44:00,